EHI
0 0 0 0 0 0 1 0 0 0 0 0 0 0 0 0 0 0 0 0 0 0 0 0 0 0 0 0 0 0 0 0 0 0 0 0 0 0
0 0 0 0 0 0 1 0 0 0 0 0 0 0 0 0 0 0 0 0 0 0 0 0 0 0 0 0 0 0 0 0 0 0 0 0 0 0
0 0 0 0 0 0 0 0 0 0 0 0 0 0 0 0 0 0 0 0 0 0 0 0 0 0 0 0 0 0 0 0 0 0 0 0 0 0
0 0 0 0 0 0 0 0 0 0 0 0 0 0 0 0 0 0 0 0 0 0 0 0 0 0 0 0 0 0 0 0 0 0 0 0 0 0
0 0 0 0 0 0 0 0 0 0 0 0 0 0 0 0 0 0 0 0 0 0 0 0 0 0 0 0 0 0 0 0 0 0 0 0 0 0
0 0 0 0 0 0 0 0 0 0 0 0 0 0 0 0 0 0 0 0 0 0 0 0 0 0 0 0 0 0 0 0 0 0 0 0 0 0
0 0 0 0 0 0 0 0 0 0 0 0 0 0 0 0 0 0 0 0 0 0 0 0 0 0 0 0 0 0 0 0 0 0 0 0 0 0
0 0 0 0 0 0 0 0 0 0 0 0 0 0 0 0 0 0 0 0 0 0 0 0 0 0 0 0 0 0 0 0 0 0 0 0 0 0
0 0 0 0 0 0 0 0 0 0 0 0 0 0 0 0 0 0 0 0 0 0 0 0 0 0 0 0 0 0 0 0 0 0 0 0 0 0
0 0 0 0 0 0 0 0 0 0 0 0 0 0 0 0 0 0 0 0 0 0 0 0 0 0 0 0 0 0 0 0 0 0 0 0 0 0
0 0 0 0 0 0 0 0 0 0 0 0 0 0 0 0 0 0 0 0 0 0 0 0 0 0 0 0 0 0 0 0 0 0 0 0 0 0
0 0 0 0 0 0 0 0 0 0 0 0 0 0 0 0 0 0 0 0 0 0 0 0 0 0 0 0 0 0 0 0 0 0 0 0 0 0
0 0 0 0 0 0 0 0 0 0 0 0 0 0 0 0 0 0 0 0 0 0 0 0 0 0 0 0 0 0 0 0 0 0 0 0 0 0
0 0 0 0 0 0 0 0 0 0 0 0 0 0 0 0 0 0 0 0 0 0 0 0 0 0 0 0 0 0 0 0 0 0 0 0 0 0
0 0 0 0 0 0 0 0 0 0 0 0 0 0 0 0 0 0 0 0 0 0 0 0 0 0 0 0 0 0 0 0 0 0 0 0 0 0
0 0 0 0 0 0 0 0 0 0 0 0 0 0 0 0 0 0 0 0 0 0 0 0 0 0 0 0 0 0 0 0 0 0 0 0 0 0
0 0 0 0 0 0 0 0 0 0 0 0 0 0 0 0 0 0 0 0 0 0 0 0 0 0 0 0 0 0 0 0 0 0 0 0 0 0
0 0 0 0 0 0 0 0 0 0 0 0 0 0 0 0 0 0 0 0 0 0 0 0 0 0 0 0 0 0 0 0 0 0 0 0 0 0
0 0 0 0 0 0 0 0 0 0 0 0 0 0 0 0 0 0 0 0 0 0 0 0 0 0 0 0 0 0 0 0 0 0 0 0 0 0
0 0 0 0 0 0 0 0 0 0 0 0 0 0 0 0 0 0 0 0 0 0 0 0 0 0 0 0 0 0 0 0 0 0 0 0 0 0
0 0 0 0 0 0 0 0 0 0 0 0 0 0 0 0 0 0 0 0 0 0 0 0 0 0 0 0 0 0 0 0 0 0 0 0 0 0
0 0 0 0 0 0 0 0 0 0 0 0 0 0 0 0 0 0 0 0 0 0 0 0 0 0 0 0 0 0 0 0 0 0 0 0 0 0
0 0 0 0 0 0 0 0 0 0 0 0 0 0 0 0 0 0 0 0 0 0 0 0 0 0 0 0 0 0 0 0 0 0 0 0 0 0
Wind_Speed
5 6 5 4 4 4 4 5 5 5 5 4 3 2 2 2 1 2 2 2 3 4 4 3 2 2 2 2 2 2 2 2 2 2 3 3 4 5
4 6 6 5 5 4 4 4 5 5 4 3 3 2 2 2 2 2 2 2 3 3 2 2 1 2 2 1 1 1 2 2 3 3 4 4 4 5
6 6 6 6 5 4 4 5 5 4 5 3 2 2 3 3 2 2 2 2 2 2 2 2 2 2 2 2 2 2 2 3 3 4 4 4 5 5
7 7 7 5 6 5 4 5 5 5 5 5 3 3 4 3 3 2 2 2 2 1 2 3 3 3 3 3 3 3 2 3 3 4 4 5 5 6
7 7 7 7 7 5 5 5 4 5 5 5 4 3 3 2 2 2 2 2 1 1 2 3 3 4 4 4 3 3 3 3 3 4 4 5 6 6
7 7 7 8 7 7 6 5 4 5 5 5 4 3 3 3 3 3 2 2 2 1 2 2 2 3 4 4 4 3 4 4 4 4 4 5 6 6
6 7 7 7 8 7 5 5 5 4 5 5 5 4 4 4 4 3 3 2 2 1 2 2 2 2 3 3 3 3 4 4 4 5 5 5 5 6
6 6 6 7 8 8 8 7 7 7 6 6 5 6 6 5 4 3 3 2 2 1 2 2 2 2 2 2 2 3 3 3 3 4 4 5 5 6
5 5 4 4 5 5 5 5 6 7 8 7 7 7 6 6 6 5 4 4 3 2 2 3 2 3 2 2 2 3 3 3 3 4 4 5 6 6
4 5 4 4 4 4 4 4 4 4 5 5 5 6 5 5 6 6 5 3 1 1 2 3 2 3 2 2 2 3 3 3 4 4 4 5 6 7
3 4 4 4 5 5 5 5 4 3 3 4 4 4 4 5 5 4 4 3 2 2 2 2 2 2 2 2 1 2 2 3 3 4 5 5 6 6
2 2 4 4 5 5 5 5 5 4 3 2 3 3 3 4 5 5 5 4 2 2 2 2 2 1 2 1 1 1 2 2 4 5 5 5 5 4
2 2 2 3 4 5 5 4 5 4 3 3 2 2 2 2 3 2 3 3 3 2 2 2 2 2 2 2 2 2 2 2 2 3 4 5 5 4
2 2 1 2 3 4 3 3 4 3 2 2 2 2 2 1 1 1 0 0 1 2 3 2 2 3 2 2 2 2 2 2 3 3 3 4 5 6
2 2 2 1 1 0 1 2 2 2 2 2 2 1 1 1 1 1 1 1 1 1 1 1 2 2 2 3 2 2 3 3 3 3 3 3 3 3
1 1 2 2 2 2 1 1 1 1 1 2 1 1 1 1 1 1 1 1 0 1 1 1 1 2 2 2 2 3 3 2 2 3 3 4 4 4
1 1 1 1 1 1 1 1 1 1 1 1 1 1 1 1 0 0 1 0 1 1 1 1 1 1 1 2 3 3 3 3 3 3 3 4 4 4
2 1 1 1 1 1 1 1 1 1 1 1 1 1 1 1 0 0 0 0 1 1 1 1 0 1 1 1 2 3 3 3 3 3 3 4 5 4
1 1 1 1 1 1 1 1 1 1 1 1 1 1 1 1 1 0 0 0 0 0 1 1 1 1 2 2 2 2 3 3 3 3 4 4 6 6
1 1 1 1 1 1 1 1 1 1 1 1 1 1 0 1 1 0 0 1 1 1 1 1 1 1 2 2 2 3 4 4 3 4 4 5 5 7
2 2 1 1 1 1 1 1 1 1 1 1 0 0 0 0 0 0 0 1 1 1 1 2 2 2 2 1 2 3 3 3 4 4 4 4 5 5
2 2 2 1 1 1 1 1 0 0 0 0 0 0 0 0 1 1 1 1 1 1 2 2 2 2 2 3 3 3 4 4 4 7 7 6 4 4
2 2 2 2 1 1 1 0 0 1 1 0 0 0 0 1 1 1 1 1 1 1 1 2 2 2 2 2 3 3 4 5 4 4 4 6 9 12
Wind_Direction
238 238 236 223 221 218 213 211 212 213 217 209 205 209 225 240 240 238 255 252 254 261 262 261 257 255 255 255 250 234 214 215 222 235 247 255 265 274
234 233 237 231 219 216 214 219 225 223 226 209 211 213 219 234 233 238 244 239 232 233 233 225 216 206 203 212 233 238 228 227 229 235 244 256 266 272
233 231 234 234 223 218 217 216 220 219 221 224 218 214 217 217 219 223 239 235 217 206 229 227 216 217 215 213 210 219 231 234 240 244 247 257 266 272
231 229 232 232 227 219 217 216 215 214 213 218 218 214 222 215 214 214 235 248 238 205 229 235 231 229 228 221 213 221 234 243 249 254 258 264 266 268
232 228 228 224 226 217 216 216 214 210 211 210 214 211 215 206 207 219 231 246 252 235 236 233 228 232 228 220 220 228 240 244 247 257 263 268 267 268
238 234 231 225 226 219 215 214 211 211 207 206 203 199 200 199 201 205 223 242 258 263 260 265 241 230 227 223 223 230 240 245 249 253 260 266 270 272
238 237 236 231 232 230 219 210 206 211 209 204 201 200 197 191 204 208 224 238 257 264 263 268 261 251 235 224 220 226 234 242 253 259 261 266 273 278
238 238 234 227 227 226 222 221 218 214 213 210 209 209 211 208 204 205 210 220 242 234 260 272 267 258 259 248 228 228 239 250 262 271 276 278 281 282
239 234 233 227 219 215 208 217 228 232 229 221 215 216 213 211 207 207 215 223 239 233 250 254 260 259 258 243 220 225 245 257 264 272 279 282 282 281
250 236 227 227 217 212 209 217 227 232 231 226 224 223 223 217 212 212 210 221 249 229 233 242 254 267 274 248 219 236 246 257 264 271 278 284 284 281
267 247 232 228 211 209 207 212 219 225 216 208 219 223 217 215 211 192 187 191 222 234 246 239 250 281 277 260 239 242 248 261 274 282 285 287 287 284
282 260 240 235 223 219 216 210 215 221 209 200 201 208 208 198 205 207 197 196 209 225 215 216 225 246 266 266 270 267 263 279 285 283 284 290 294 285
289 272 243 230 238 235 234 224 211 207 203 200 198 199 197 197 204 218 214 207 209 223 201 202 221 233 233 262 283 290 284 291 289 285 281 288 289 286
290 292 277 226 243 239 232 200 182 189 189 184 180 190 198 200 195 190 171 242 257 233 211 214 222 222 228 255 265 282 293 300 295 293 295 293 288 284
310 328 339 31 30 73 107 141 160 173 169 170 179 194 199 180 159 130 89 76 44 2 259 252 225 219 228 232 251 269 288 294 288 287 288 287 287 290
335 358 3 47 52 42 40 63 66 124 152 162 163 149 138 149 170 166 161 137 86 1 3 335 249 221 230 242 238 255 266 268 279 289 293 290 287 281
328 326 346 36 55 57 62 60 59 78 91 124 133 134 134 118 113 121 142 174 216 233 294 357 355 319 272 251 241 248 266 279 280 289 291 289 287 284
348 9 22 26 22 43 62 64 58 57 64 86 117 128 133 127 105 71 128 154 179 234 277 290 303 301 268 273 248 252 260 275 283 282 281 284 288 289
12 26 26 17 16 30 36 48 50 54 60 79 96 110 114 117 128 138 134 143 189 225 262 276 252 232 239 260 268 239 262 280 285 283 281 282 285 290
13 12 15 11 6 13 28 41 58 65 73 74 76 92 126 138 153 178 200 211 225 251 275 286 279 261 245 261 276 282 272 271 275 278 284 289 288 289
0 360 359 354 352 3 20 36 48 55 56 70 93 123 163 162 188 233 236 223 257 253 261 281 302 300 280 256 259 268 275 272 273 270 278 286 291 289
347 345 346 344 344 357 1 10 28 30 37 5 261 220 205 191 206 228 241 246 255 262 278 288 291 281 260 250 261 278 288 298 290 280 268 261 271 275
335 335 338 340 341 341 330 334 317 302 305 295 284 273 251 242 248 247 246 251 258 256 269 279 284 283 277 268 269 278 286 293 294 295 283 275 273 274